When you browse on this site, cookies collect data to enhance your experience and personalize the content and advertising you see.
Visit our Privacy Policy to learn more. By continuing to use the site, you agree to this use of cookies and data.
  • en France
  • Liste des pays
  • À 7 jours
  • Température de l'eau
  • Carte satellitaire
  • Carte météo
  • Widgets météo
  • user-avatar
    Se connecter

    Météo par heure à Belize

    Ce jour, 23 Mai, Jeudi

    Heure Température Précipitation Vent Pression Humidité
    00:00 +28°C° 0 mm 7 m/s 758 mmHg 84%
    01:00 +28°C° 0.3 mm 6 m/s 758 mmHg 83%
    02:00 +29°C° 0.3 mm 6 m/s 758 mmHg 82%
    03:00 +29°C° 0.3 mm 6 m/s 758 mmHg 81%
    04:00 +29°C° 0 mm 6 m/s 758 mmHg 79%
    05:00 +29°C° 0 mm 6 m/s 758 mmHg 78%
    06:00 +30°C° 0 mm 6 m/s 758 mmHg 76%
    07:00 +30°C° 0.4 mm 6 m/s 758 mmHg 77%
    08:00 +30°C° 0.4 mm 6 m/s 759 mmHg 78%
    09:00 +30°C° 0.4 mm 5 m/s 759 mmHg 79%
    10:00 +30°C° 1.3 mm 5 m/s 759 mmHg 79%
    11:00 +32°C° 1.3 mm 5 m/s 759 mmHg 79%
    12:00 +32°C° 1.3 mm 5 m/s 758 mmHg 78%
    13:00 +32°C° 1.2 mm 5 m/s 758 mmHg 79%
    14:00 +32°C° 1.2 mm 6 m/s 758 mmHg 79%
    15:00 +32°C° 1.2 mm 6 m/s 758 mmHg 79%
    16:00 +30°C° 0.3 mm 6 m/s 758 mmHg 79%
    17:00 +30°C° 0.3 mm 6 m/s 758 mmHg 78%
    18:00 +29°C° 0.3 mm 6 m/s 758 mmHg 78%
    19:00 +29°C° 0.1 mm 6 m/s 758 mmHg 79%
    20:00 +29°C° 0.1 mm 6 m/s 759 mmHg 80%
    21:00 +29°C° 0.1 mm 6 m/s 759 mmHg 81%
    22:00 +29°C° 0 mm 6 m/s 759 mmHg 81%
    23:00 +29°C° 0 mm 6 m/s 759 mmHg 81%

    Demain, 24 Mai, Vendredi

    Heure Température Précipitation Vent Pression Humidité
    00:00 +29°C° 0 mm 6 m/s 759 mmHg 81%
    01:00 +28°C° 0.1 mm 5 m/s 759 mmHg 81%
    02:00 +28°C° 0.1 mm 5 m/s 758 mmHg 81%
    03:00 +28°C° 0.1 mm 5 m/s 758 mmHg 81%
    04:00 +28°C° 0.1 mm 5 m/s 758 mmHg 82%
    05:00 +28°C° 0.1 mm 5 m/s 758 mmHg 82%
    06:00 +28°C° 0.1 mm 5 m/s 758 mmHg 83%
    07:00 +29°C° 0.2 mm 5 m/s 758 mmHg 78%
    08:00 +30°C° 0.2 mm 5 m/s 759 mmHg 73%
    09:00 +32°C° 0.2 mm 5 m/s 759 mmHg 69%
    10:00 +33°C° 0.2 mm 5 m/s 759 mmHg 66%
    11:00 +34°C° 0.2 mm 5 m/s 759 mmHg 62%
    12:00 +34°C° 0.2 mm 5 m/s 759 mmHg 59%
    13:00 +34°C° 0 mm 5 m/s 758 mmHg 60%
    14:00 +34°C° 0 mm 5 m/s 758 mmHg 60%
    15:00 +34°C° 0 mm 5 m/s 757 mmHg 60%
    16:00 +33°C° 0 mm 5 m/s 757 mmHg 65%
    17:00 +32°C° 0 mm 5 m/s 757 mmHg 70%
    18:00 +30°C° 0 mm 5 m/s 758 mmHg 75%
    19:00 +29°C° 0 mm 4 m/s 758 mmHg 78%
    20:00 +29°C° 0 mm 4 m/s 759 mmHg 80%
    21:00 +28°C° 0 mm 4 m/s 759 mmHg 83%
    22:00 +28°C° 0 mm 4 m/s 759 mmHg 83%
    23:00 +28°C° 0 mm 4 m/s 759 mmHg 83%

    Après-demain, 25 Mai, Samedi

    Heure Température Précipitation Vent Pression Humidité
    00:00 +28°C° 0 mm 4 m/s 759 mmHg 83%
    01:00 +28°C° 0 mm 4 m/s 759 mmHg 83%
    02:00 +28°C° 0 mm 3 m/s 758 mmHg 84%
    03:00 +28°C° 0 mm 3 m/s 758 mmHg 84%
    04:00 +27°C° 0.1 mm 3 m/s 758 mmHg 85%
    05:00 +27°C° 0.1 mm 3 m/s 758 mmHg 86%
    06:00 +27°C° 0.1 mm 3 m/s 758 mmHg 87%
    07:00 +28°C° 0.4 mm 3 m/s 759 mmHg 84%
    08:00 +29°C° 0.4 mm 3 m/s 759 mmHg 80%
    09:00 +30°C° 0.4 mm 3 m/s 759 mmHg 77%
    10:00 +31°C° 0.3 mm 3 m/s 759 mmHg 73%
    11:00 +33°C° 0.3 mm 3 m/s 759 mmHg 69%
    12:00 +34°C° 0.3 mm 4 m/s 759 mmHg 64%
    13:00 +34°C° 0 mm 4 m/s 758 mmHg 63%
    14:00 +34°C° 0 mm 4 m/s 757 mmHg 62%
    15:00 +34°C° 0 mm 4 m/s 757 mmHg 61%
    16:00 +33°C° 0 mm 4 m/s 757 mmHg 66%
    17:00 +32°C° 0 mm 4 m/s 757 mmHg 71%
    18:00 +30°C° 0 mm 4 m/s 757 mmHg 75%
    19:00 +29°C° 0 mm 4 m/s 758 mmHg 78%
    20:00 +29°C° 0 mm 4 m/s 758 mmHg 80%
    21:00 +28°C° 0 mm 4 m/s 759 mmHg 83%
    22:00 +28°C° 0 mm 4 m/s 759 mmHg 83%
    23:00 +28°C° 0 mm 4 m/s 759 mmHg 84%

    26 Mai, Dimanche

    Heure Température Précipitation Vent Pression Humidité
    00:00 +28°C° 0 mm 4 m/s 759 mmHg 84%
    01:00 +28°C° 0.3 mm 4 m/s 759 mmHg 85%
    02:00 +27°C° 0.3 mm 3 m/s 758 mmHg 87%
    03:00 +27°C° 0.3 mm 3 m/s 758 mmHg 88%
    04:00 +27°C° 0.5 mm 3 m/s 758 mmHg 89%
    05:00 +27°C° 0.5 mm 3 m/s 758 mmHg 89%
    06:00 +27°C° 0.5 mm 2 m/s 758 mmHg 89%
    07:00 +28°C° 0.4 mm 3 m/s 758 mmHg 85%
    08:00 +29°C° 0.4 mm 3 m/s 759 mmHg 80%
    09:00 +30°C° 0.4 mm 3 m/s 759 mmHg 76%
    10:00 +33°C° 0.1 mm 3 m/s 759 mmHg 69%
    11:00 +34°C° 0.1 mm 3 m/s 759 mmHg 63%
    12:00 +35°C° 0.1 mm 4 m/s 759 mmHg 57%
    13:00 +34°C° 0 mm 4 m/s 758 mmHg 58%
    14:00 +34°C° 0 mm 4 m/s 758 mmHg 59%
    15:00 +34°C° 0 mm 4 m/s 757 mmHg 60%
    16:00 +33°C° 0 mm 4 m/s 757 mmHg 65%
    17:00 +32°C° 0 mm 4 m/s 757 mmHg 70%
    18:00 +30°C° 0 mm 4 m/s 757 mmHg 75%
    19:00 +29°C° 0.2 mm 4 m/s 758 mmHg 78%
    20:00 +29°C° 0.2 mm 4 m/s 758 mmHg 82%
    21:00 +28°C° 0.2 mm 3 m/s 759 mmHg 85%
    22:00 +28°C° 0.1 mm 4 m/s 759 mmHg 85%
    23:00 +28°C° 0.1 mm 4 m/s 759 mmHg 85%

    27 Mai, Lundi

    Heure Température Précipitation Vent Pression Humidité
    00:00 +28°C° 0.1 mm 4 m/s 759 mmHg 85%
    01:00 +28°C° 0.6 mm 3 m/s 758 mmHg 87%
    02:00 +27°C° 0.6 mm 3 m/s 758 mmHg 89%
    03:00 +27°C° 0.6 mm 2 m/s 757 mmHg 90%
    04:00 +27°C° 0.6 mm 2 m/s 757 mmHg 90%
    05:00 +27°C° 0.6 mm 2 m/s 757 mmHg 89%
    06:00 +27°C° 0.6 mm 2 m/s 758 mmHg 89%
    07:00 +28°C° 0.6 mm 2 m/s 758 mmHg 85%
    08:00 +29°C° 0.6 mm 2 m/s 758 mmHg 82%
    09:00 +30°C° 0.6 mm 2 m/s 759 mmHg 78%
    10:00 +30°C° 1.3 mm 3 m/s 758 mmHg 78%
    11:00 +31°C° 1.3 mm 3 m/s 758 mmHg 78%
    12:00 +31°C° 1.3 mm 3 m/s 758 mmHg 78%
    13:00 +31°C° 0 mm 3 m/s 757 mmHg 72%
    14:00 +33°C° 0 mm 4 m/s 757 mmHg 66%
    15:00 +34°C° 0 mm 4 m/s 756 mmHg 61%
    16:00 +33°C° 0 mm 4 m/s 756 mmHg 66%
    17:00 +32°C° 0 mm 4 m/s 756 mmHg 71%
    18:00 +30°C° 0 mm 4 m/s 756 mmHg 77%
    19:00 +29°C° 0 mm 3 m/s 757 mmHg 79%
    20:00 +29°C° 0 mm 3 m/s 757 mmHg 81%
    21:00 +28°C° 0 mm 3 m/s 758 mmHg 84%
    22:00 +28°C° 0.2 mm 3 m/s 758 mmHg 85%
    23:00 +28°C° 0.2 mm 3 m/s 757 mmHg 86%

    28 Mai, Mardi

    Heure Température Précipitation Vent Pression Humidité
    00:00 +28°C° 0.2 mm 2 m/s 757 mmHg 87%
    01:00 +27°C° 1.5 mm 2 m/s 757 mmHg 89%
    02:00 +27°C° 1.5 mm 2 m/s 756 mmHg 90%
    03:00 +26°C° 1.5 mm 1 m/s 756 mmHg 92%
    04:00 +27°C° 0 mm 1 m/s 756 mmHg 92%
    05:00 +27°C° 0 mm 1 m/s 756 mmHg 91%
    06:00 +27°C° 0 mm 2 m/s 757 mmHg 91%
    07:00 +28°C° 0.1 mm 2 m/s 757 mmHg 84%
    08:00 +30°C° 0.1 mm 2 m/s 757 mmHg 76%
    09:00 +33°C° 0.1 mm 3 m/s 757 mmHg 69%
    10:00 +33°C° 0.2 mm 3 m/s 757 mmHg 68%
    11:00 +33°C° 0.2 mm 3 m/s 756 mmHg 68%
    12:00 +34°C° 0.2 mm 4 m/s 756 mmHg 67%
    13:00 +34°C° 0 mm 4 m/s 755 mmHg 66%
    14:00 +34°C° 0 mm 4 m/s 755 mmHg 64%
    15:00 +34°C° 0 mm 4 m/s 755 mmHg 63%
    16:00 +33°C° 0.1 mm 4 m/s 755 mmHg 68%
    17:00 +32°C° 0.1 mm 4 m/s 755 mmHg 74%
    18:00 +30°C° 0.1 mm 4 m/s 755 mmHg 79%
    19:00 +29°C° 0.8 mm 4 m/s 756 mmHg 83%
    20:00 +28°C° 0.8 mm 4 m/s 756 mmHg 87%
    21:00 +28°C° 0.8 mm 4 m/s 756 mmHg 91%
    22:00 +28°C° 1.9 mm 4 m/s 756 mmHg 91%
    23:00 +27°C° 1.9 mm 4 m/s 756 mmHg 92%
    Voir plus